FW2552 Weather Reports


time (UTC)temp
C
wind
direction
speed
KPH
gust
KPH
rain 1hr
cm
rain 24hr
cm
rain mn
cm
humidity
%
barometer
mb
20260906165203 36 121 4.8 22.5 0.00 0.00 0.00 36 1017.5
20260906164703 36 163 11.3 24.1 0.00 0.00 0.00 36 1017.6
20260906164204 36 359 4.8 24.1 0.00 0.00 0.00 37 1017.6
20260906163703 36 171 6.4 14.5 0.00 0.00 0.00 36 1017.7
20260906163203 36 28 4.8 14.5 0.00 0.00 0.00 38 1017.3
20260906162703 36 10 8.0 12.9 0.00 0.00 0.00 38 1017.6
20260906162203 35 106 6.4 19.3 0.00 0.00 0.00 39 1017.7
20260906161703 35 100 8.0 19.3 0.00 0.00 0.00 39 1017.7
20260906161204 35 106 4.8 16.1 0.00 0.00 0.00 40 1017.7
20260906160203 35 126 4.8 16.1 0.00 0.00 0.00 42 1017.7
20260906155704 35 110 9.7 16.1 0.00 0.00 0.00 41 1017.6
20260906155203 34 35 4.8 9.7 0.00 0.00 0.00 42 1017.6
20260906154704 33 217 3.2 12.9 0.00 0.00 0.00 44 1017.6
20260906154204 33 68 3.2 12.9 0.00 0.00 0.00 45 1017.5
20260906152203 32 101 8.0 12.9 0.00 0.00 0.00 46 1017.3
20260906151704 31 130 8.0 14.5 0.00 0.00 0.00 50 1017.2
20260906151203 31 106 9.7 16.1 0.00 0.00 0.00 50 1017.1
20260906150703 31 95 8.0 16.1 0.00 0.00 0.00 51 1017.3
20260906150203 31 130 11.3 22.5 0.00 0.00 0.00 51 1017.3
20260906145203 31 103 11.3 16.1 0.00 0.00 0.00 52 1017.1
20260906144704 30 92 4.8 16.1 0.00 0.00 0.00 52 1017.1
20260906143703 30 124 12.9 20.9 0.00 0.00 0.00 56 1017.2
20260906142704 30 96 9.7 16.1 0.00 0.00 0.00 57 1017.2
20260906142203 29 109 8.0 20.9 0.00 0.00 0.00 58 1017.1
20260906141704 29 117 11.3 20.9 0.00 0.00 0.00 57 1017.2
20260906141204 28 69 3.2 20.9 0.00 0.00 0.00 59 1017.0
20260906140703 29 115 11.3 22.5 0.00 0.00 0.00 58 1017.1
20260906135703 29 96 4.8 14.5 0.00 0.00 0.00 58 1017.1
20260906134704 29 129 8.0 16.1 0.00 0.00 0.00 58 1017.1
20260906133704 28 120 4.8 16.1 0.00 0.00 0.00 60 1016.9
20260906133204 28 98 8.0 16.1 0.00 0.00 0.00 60 1017.1
20260906132704 28 114 4.8 16.1 0.00 0.00 0.00 61 1016.9
20260906132204 28 94 6.4 16.1 0.00 0.00 0.00 61 1016.8
20260906131703 28 92 8.0 12.9 0.00 0.00 0.00 61 1016.8
20260906131203 27 66 3.2 9.7 0.00 0.00 0.00 62 1016.8
20260906130704 27 75 3.2 11.3 0.00 0.00 0.00 63 1016.6
20260906130204 27 96 4.8 11.3 0.00 0.00 0.00 63 1016.6
20260906125704 27 107 4.8 11.3 0.00 0.00 0.00 64 1016.7
20260906125203 26 285 0.0 4.8 0.00 0.00 0.00 66 1016.5
20260906124704 26 51 1.6 4.8 0.00 0.00 0.00 67 1016.4
20260906123703 25 89 0.0 4.8 0.00 0.00 0.00 69 1016.3
20260906123203 25 76 0.0 4.8 0.00 0.00 0.00 69 1016.2
20260906122703 25 55 0.0 4.8 0.00 0.00 0.00 71 1016.1
20260906122204 24 122 3.2 8.0 0.00 0.00 0.00 72 1016.0
20260906121703 24 115 1.6 3.2 0.00 0.00 0.00 73 1016.0
20260906121204 24 106 0.0 4.8 0.00 0.00 0.00 73 1016.0
20260906120704 23 81 0.0 3.2 0.00 0.00 0.00 74 1016.0
20260906120203 23 107 0.0 3.2 0.00 0.00 0.00 74 1016.1
20260906115703 23 102 1.6 3.2 0.00 0.00 0.00 74 1015.9
20260906115204 23 72 0.0 4.8 0.00 0.00 0.00 74 1016.0
20260906114703 23 101 0.0 4.8 0.00 0.00 0.00 74 1015.9
20260906113704 23 90 1.6 3.2 0.00 0.00 0.00 73 1016.2
20260906113203 23 55 1.6 4.8 0.00 0.00 0.00 73 1016.2
20260906112203 23 56 0.0 3.2 0.00 0.00 0.00 74 1016.0
20260906111703 23 33 0.0 0.0 0.00 0.00 0.00 74 1016.0
20260906111204 23 51 0.0 4.8 0.00 0.00 0.00 73 1015.9
20260906110204 23 101 1.6 4.8 0.00 0.00 0.00 73 1016.0
20260906105203 23 62 0.0 3.2 0.00 0.00 0.00 72 1016.1
20260906104204 23 44 0.0 0.0 0.00 0.00 0.00 72 1016.1
20260906103703 23 82 0.0 0.0 0.00 0.00 0.00 71 1016.0
20260906103204 24 128 0.0 3.2 0.00 0.00 0.00 71 1016.2
20260906102704 24 87 1.6 3.2 0.00 0.00 0.00 70 1015.9
20260906101204 24 54 1.6 4.8 0.00 0.00 0.00 69 1016.0
20260906100204 24 299 1.6 3.2 0.00 0.00 0.00 70 1016.0
20260906095703 24 106 0.0 3.2 0.00 0.00 0.00 70 1016.0
20260906095203 24 95 0.0 3.2 0.00 0.00 0.00 70 1016.1
20260906094704 24 52 0.0 3.2 0.00 0.00 0.00 69 1016.0
20260906093703 24 268 0.0 0.0 0.00 0.00 0.00 70 1016.0
20260906093203 24 53 0.0 0.0 0.00 0.00 0.00 70 1015.7
20260906092203 25 41 0.0 3.2 0.00 0.00 0.00 68 1015.7
20260906091704 25 149 0.0 0.0 0.00 0.00 0.00 69 1015.7
20260906091204 25 45 0.0 3.2 0.00 0.00 0.00 68 1015.7
20260906090703 25 51 0.0 3.2 0.00 0.00 0.00 68 1015.8
20260906090203 25 52 1.6 3.2 0.00 0.00 0.00 67 1015.7
20260906085703 25 97 0.0 3.2 0.00 0.00 0.00 66 1015.6
20260906085203 25 50 0.0 3.2 0.00 0.00 0.00 65 1015.6
20260906084704 26 16 0.0 3.2 0.00 0.00 0.00 64 1015.6
20260906084203 26 64 0.0 3.2 0.00 0.00 0.00 62 1015.5
20260906083203 26 69 0.0 3.2 0.00 0.00 0.00 62 1015.5
20260906082704 26 89 1.6 3.2 0.00 0.00 0.00 61 1015.6
20260906082203 26 279 0.0 3.2 0.00 0.00 0.00 60 1015.4
20260906081703 26 57 1.6 8.0 0.00 0.00 0.00 59 1015.6
20260906081203 26 104 4.8 8.0 0.00 0.00 0.00 61 1015.5
20260906080704 25 100 3.2 4.8 0.00 0.00 0.00 64 1015.6
20260906075703 25 207 0.0 3.2 0.00 0.00 0.00 66 1015.6
20260906075204 25 35 0.0 3.2 0.00 0.00 0.00 66 1015.6
20260906074703 25 93 0.0 3.2 0.00 0.00 0.00 66 1015.6
20260906074203 25 37 0.0 3.2 0.00 0.00 0.00 66 1015.6
20260906073703 25 54 0.0 3.2 0.00 0.00 0.00 66 1015.6
20260906073203 25 178 0.0 0.0 0.00 0.00 0.00 67 1015.8
20260906072203 25 41 0.0 3.2 0.00 0.00 0.00 66 1015.8
20260906071704 25 47 0.0 3.2 0.00 0.00 0.00 66 1015.7
20260906071203 26 39 0.0 3.2 0.00 0.00 0.00 65 1015.8
20260906070703 26 48 1.6 3.2 0.00 0.00 0.00 65 1015.7
20260906070203 26 161 0.0 0.0 0.00 0.00 0.00 64 1015.8
20260906065703 26 218 0.0 3.2 0.00 0.00 0.00 65 1015.9
20260906065203 26 207 0.0 3.2 0.00 0.00 0.00 65 1016.0
20260906064703 26 140 0.0 3.2 0.00 0.00 0.00 65 1015.9
20260906064204 26 46 0.0 3.2 0.00 0.00 0.00 64 1016.0
20260906063203 26 82 0.0 3.2 0.00 0.00 0.00 61 1016.1
20260906062703 26 93 1.6 3.2 0.00 0.00 0.00 61 1016.0
20260906062203 26 89 0.0 0.0 0.00 0.00 0.00 61 1016.2
20260906061704 26 82 0.0 4.8 0.00 0.00 0.00 61 1016.2
20260906061203 26 94 1.6 4.8 0.00 0.00 0.00 63 1016.2
20260906060703 26 227 0.0 3.2 0.00 0.00 0.00 64 1016.0
20260906060203 26 4 0.0 0.0 0.00 0.00 0.00 64 1016.2
20260906055703 26 25 0.0 3.2 0.00 0.00 0.00 64 1016.1
20260906054703 26 72 0.0 4.8 0.00 0.00 0.00 64 1016.0
20260906054203 26 33 0.0 3.2 0.00 0.00 0.00 63 1016.0
20260906053704 26 96 3.2 3.2 0.00 0.00 0.00 64 1016.0
20260906053203 26 31 0.0 0.0 0.00 0.00 0.00 63 1016.0
20260906052204 26 216 0.0 0.0 0.00 0.00 0.00 63 1015.9
20260906051203 26 51 0.0 0.0 0.00 0.00 0.00 62 1016.0
20260906050704 26 124 0.0 3.2 0.00 0.00 0.00 62 1016.1
20260906050203 26 59 0.0 3.2 0.00 0.00 0.00 61 1016.1
20260906045204 26 77 1.6 3.2 0.00 0.00 0.00 61 1016.1
20260906044703 26 85 0.0 3.2 0.00 0.00 0.00 61 1016.2
20260906044204 27 75 0.0 0.0 0.00 0.00 0.00 61 1016.1
20260906043703 27 107 0.0 0.0 0.00 0.00 0.00 60 1016.3
20260906043203 27 82 0.0 3.2 0.00 0.00 0.00 60 1016.1
20260906042704 27 98 0.0 3.2 0.00 0.00 0.00 60 1016.1
20260906042203 27 66 0.0 3.2 0.00 0.00 0.00 60 1016.1
20260906041704 27 72 0.0 3.2 0.00 0.00 0.00 59 1016.1
20260906041204 27 40 0.0 3.2 0.00 0.00 0.00 59 1016.0
20260906040703 27 63 0.0 3.2 0.00 0.00 0.00 59 1016.1
20260906035703 27 259 0.0 4.8 0.00 0.00 0.00 58 1016.1
20260906035203 27 107 3.2 9.7 0.00 0.00 0.00 57 1015.8
20260906034704 27 99 6.4 9.7 0.00 0.00 0.00 58 1015.9
20260906034203 27 75 0.0 0.0 0.00 0.00 0.00 58 1015.9
20260906033704 27 95 0.0 3.2 0.00 0.00 0.00 58 1015.7
20260906033203 27 279 0.0 3.2 0.00 0.00 0.00 58 1015.7
20260906032203 27 101 0.0 0.0 0.00 0.00 0.00 57 1015.6
20260906031703 27 96 0.0 3.2 0.00 0.00 0.00 57 1015.8
20260906031203 27 75 0.0 4.8 0.00 0.00 0.00 57 1015.7
20260906030703 27 72 0.0 3.2 0.00 0.00 0.00 57 1015.6
20260906025704 27 64 0.0 3.2 0.00 0.00 0.00 57 1015.5
20260906025203 27 83 0.0 3.2 0.00 0.00 0.00 56 1015.4
20260906024704 28 48 0.0 3.2 0.00 0.00 0.00 56 1015.3
20260906023203 28 48 0.0 3.2 0.00 0.00 0.00 55 1015.3
20260906022703 28 43 0.0 3.2 0.00 0.00 0.00 54 1015.3
20260906022203 28 44 0.0 3.2 0.00 0.00 0.00 54 1015.1
20260906020703 28 26 1.6 3.2 0.00 0.00 0.00 53 1015.0
20260906020203 28 103 0.0 3.2 0.00 0.00 0.00 53 1015.0
20260906015704 28 127 0.0 4.8 0.00 0.00 0.00 52 1014.9
20260906015204 29 36 0.0 3.2 0.00 0.00 0.00 52 1014.9
20260906014704 29 59 3.2 3.2 0.00 0.00 0.00 51 1014.7
20260906014203 29 94 0.0 4.8 0.00 0.00 0.00 51 1014.7
20260906013704 29 45 3.2 4.8 0.00 0.00 0.00 51 1014.6
20260906013203 29 43 0.0 3.2 0.00 0.00 0.00 50 1014.4
20260906012704 30 44 1.6 3.2 0.00 0.00 0.00 50 1014.6
20260906011203 30 200 0.0 8.0 0.00 0.00 0.00 48 1014.3
20260906010703 30 237 0.0 11.3 0.00 0.00 0.00 48 1014.3
20260906005703 30 221 3.2 12.9 0.00 0.00 0.00 47 1014.2
20260906004204 30 21 3.2 24.1 0.00 0.00 0.00 48 1014.3
20260906003703 30 148 12.9 32.2 0.00 0.00 0.00 49 1014.6
20260906003203 30 172 8.0 27.4 0.00 0.00 0.00 50 1014.5
20260906002703 30 122 11.3 24.1 0.00 0.00 0.00 50 1014.5
20260906001703 31 115 4.8 12.9 0.00 0.00 0.00 50 1014.4
20260906001203 31 178 4.8 11.3 0.00 0.00 0.00 50 1014.5
20260906000704 31 263 6.4 22.5 0.00 0.00 0.00 48 1014.5
20260906000204 31 157 9.7 27.4 0.00 0.00 0.00 47 1014.6
20260905235704 32 69 3.2 25.7 0.00 0.00 0.00 46 1014.6
20260905235204 32 179 8.0 24.1 0.00 0.00 0.00 44 1014.4
20260905234703 33 159 12.9 32.2 0.00 0.00 0.00 42 1014.5
20260905234204 35 111 9.7 25.7 0.00 0.00 0.00 37 1014.6
20260905233203 36 211 1.6 11.3 0.00 0.00 0.00 35 1014.1
20260905232703 36 105 1.6 8.0 0.00 0.00 0.00 34 1014.1
20260905232204 36 236 0.0 12.9 0.00 0.00 0.00 34 1014.1
20260905231204 36 326 1.6 12.9 0.00 0.00 0.00 33 1014.2
20260905230703 36 3 8.0 12.9 0.00 0.00 0.00 32 1014.1
20260905230203 36 166 3.2 11.3 0.00 0.00 0.00 32 1014.1
20260905225703 36 310 3.2 11.3 0.00 0.00 0.00 33 1014.0
20260905224204 36 195 0.0 3.2 0.00 0.00 0.00 33 1014.1
20260905223703 36 228 0.0 4.8 0.00 0.00 0.00 32 1014.1
20260905223203 36 95 1.6 12.9 0.00 0.00 0.00 31 1014.1
20260905222703 36 94 3.2 11.3 0.00 0.00 0.00 31 1014.0
20260905222203 37 106 8.0 14.5 0.00 0.00 0.00 31 1014.1
20260905221203 37 104 4.8 14.5 0.00 0.00 0.00 30 1013.9
20260905220703 37 111 11.3 19.3 0.00 0.00 0.00 29 1014.2
20260905220204 38 98 8.0 19.3 0.00 0.00 0.00 28 1014.2
20260905215703 39 71 8.0 16.1 0.00 0.00 0.00 27 1014.6
20260905215204 39 99 9.7 22.5 0.00 0.00 0.00 27 1014.3
20260905214703 40 7 3.2 19.3 0.00 0.00 0.00 27 1014.4
20260905214204 40 114 6.4 19.3 0.00 0.00 0.00 27 1014.5
20260905213703 39 57 1.6 9.7 0.00 0.00 0.00 28 1014.3
20260905212704 38 178 3.2 11.3 0.00 0.00 0.00 28 1014.4
20260905212203 38 274 8.0 12.9 0.00 0.00 0.00 30 1014.4
20260905211703 38 22 9.7 14.5 0.00 0.00 0.00 28 1014.6
20260905210703 38 23 11.3 16.1 0.00 0.00 0.00 28 1014.6
20260905210204 38 60 3.2 14.5 0.00 0.00 0.00 28 1014.7
20260905205203 38 320 8.0 11.3 0.00 0.00 0.00 30 1014.9
20260905204703 37 44 3.2 12.9 0.00 0.00 0.00 31 1015.0
20260905204204 37 109 1.6 4.8 0.00 0.00 0.00 30 1015.0
20260905203703 37 175 3.2 9.7 0.00 0.00 0.00 31 1014.8
20260905203203 37 209 1.6 9.7 0.00 0.00 0.00 31 1015.0
20260905202704 37 130 6.4 9.7 0.00 0.00 0.00 30 1015.2
20260905202203 38 31 4.8 8.0 0.00 0.00 0.00 29 1015.3
20260905201703 37 175 1.6 9.7 0.00 0.00 0.00 31 1015.3
20260905201203 37 358 0.0 8.0 0.00 0.00 0.00 30 1015.4
20260905200704 37 28 3.2 9.7 0.00 0.00 0.00 31 1015.3
20260905195703 38 355 1.6 14.5 0.00 0.00 0.00 31 1015.3
20260905194703 38 353 4.8 16.1 0.00 0.00 0.00 28 1015.5
20260905194203 38 281 8.0 16.1 0.00 0.00 0.00 28 1015.5
20260905193704 38 279 6.4 16.1 0.00 0.00 0.00 29 1015.7
20260905192703 37 156 3.2 11.3 0.00 0.00 0.00 32 1015.8
20260905192204 37 28 3.2 8.0 0.00 0.00 0.00 32 1015.9
20260905191704 37 85 3.2 16.1 0.00 0.00 0.00 32 1015.9
20260905191203 37 18 8.0 24.1 0.00 0.00 0.00 31 1016.0
20260905190703 38 125 8.0 24.1 0.00 0.00 0.00 31 1016.1
20260905190203 38 243 8.0 14.5 0.00 0.00 0.00 30 1016.2
20260905185704 38 294 4.8 19.3 0.00 0.00 0.00 31 1016.1
20260905185203 38 164 4.8 16.1 0.00 0.00 0.00 30 1016.3
20260905184703 37 270 11.3 22.5 0.00 0.00 0.00 32 1016.2
20260905184203 37 203 3.2 14.5 0.00 0.00 0.00 32 1016.4
20260905183703 37 141 4.8 14.5 0.00 0.00 0.00 32 1016.5
20260905183204 37 292 4.8 11.3 0.00 0.00 0.00 33 1016.5
20260905182704 36 49 4.8 11.3 0.00 0.00 0.00 34 1016.4
20260905182203 36 344 4.8 9.7 0.00 0.00 0.00 34 1016.6
20260905181703 36 126 4.8 12.9 0.00 0.00 0.00 34 1016.6
20260905181203 37 25 4.8 16.1 0.00 0.00 0.00 33 1016.8
20260905180704 36 29 6.4 16.1 0.00 0.00 0.00 34 1016.7
20260905180203 36 268 1.6 11.3 0.00 0.00 0.00 35 1016.8
20260905175703 36 46 4.8 20.9 0.00 0.00 0.00 35 1016.9
20260905175204 36 279 8.0 12.9 0.00 0.00 0.00 34 1017.3
20260905174703 37 293 3.2 14.5 0.00 0.00 0.00 34 1017.1
20260905174203 37 167 4.8 11.3 0.00 0.00 0.00 33 1017.2
20260905173704 37 4 8.0 16.1 0.00 0.00 0.00 34 1017.2
20260905172703 35 66 0.0 9.7 0.00 0.00 0.00 37 1017.2
20260905172204 35 262 4.8 11.3 0.00 0.00 0.00 36 1017.3
20260905171203 36 35 4.8 11.3 0.00 0.00 0.00 35 1017.6
20260905170704 36 359 4.8 16.1 0.00 0.00 0.00 36 1017.5
20260905170203 36 262 4.8 16.1 0.00 0.00 0.00 36 1017.7
20260905165704 36 44 8.0 14.5 0.00 0.00 0.00 35 1017.8